Weather History for McMinnville, OR

Change the Weather History Date:

Sunday, November 25, 2012

  Actual Average Record
Temperature  
Mean Temperature 40 °F 43 °F  
Max Temperature 48 °F 49 °F 67 °F (1943)
Min Temperature 31 °F 37 °F 15 °F (1985)
Degree Days  
Heating Degree Days 25 22  
Month to date heating degree days 420 486  
Since 1 July heating degree days 848 1109  
Cooling Degree Days 0 0  
Month to date cooling degree days 0 0  
Year to date cooling degree days 300 215  
Moisture  
Dew Point 34 °F    
Average Humidity 83    
Maximum Humidity 100    
Minimum Humidity 66    
Precipitation  
Precipitation 0.00 in 0.26 in 2.10 in (1927)
Month to date precipitation 6.00 5.36  
Year to date precipitation 40.48 32.22  
Snow  
Snow 0.00 in - - ()
Month to date snowfall 0.0  
Snow Depth 0.00 in    
Sea Level Pressure  
Sea Level Pressure 30.26 in    
Wind  
Wind Speed 4 mph (NNW)    
Max Wind Speed 12 mph    
Max Gust Speed -    
Visibility 5 miles    
Events Fog    
T = Trace of Precipitation, MM = Missing Value Source: NWS Daily Summary

Daily Weather History Graph

Daily Weather History Graph

Search for Another Location

Airport:

Trip Planner

Search our weather history database for the weather conditions in past years. The results will help you decide how hot, cold, wet, or windy it might be!

Date:

Astronomy

Nov. 25, 2012 Rise Set
Actual Time 7:24 AM PST 4:34 PM PST
Civil Twilight 6:51 AM PST 5:07 PM PST
Nautical Twilight 6:15 AM PST 5:43 PM PST
Astronomical Twilight 5:40 AM PST 6:18 PM PST
Moon 2:58 PM PST (11/25) 4:38 AM PST (11/25)
Length of Visible Light 10h 15m
Length of Day
9h 09m
Waxing Gibbous, 93% of the Moon is Illuminated
Nov 25
Waxing Gibbous
Nov 28
Full
Dec 6
Last Quarter
Dec 13
New
Dec 19
First Quarter

Hourly Weather History & Observations

Time (PST) Temp. Windchill Dew Point Humidity Pressure Visibility Wind Dir Wind Speed Gust Speed Precip Events Conditions
12:45 AM 37.4 °F - 35.6 °F 93% 30.26 in 2.5 mi Calm Calm - N/A   Clear
12:53 AM 37.0 °F - 35.1 °F 93% 30.27 in 1.0 mi Calm Calm - N/A   Clear
1:03 AM 35.6 °F 31.7 °F 33.8 °F 93% 30.27 in 3.0 mi NW 4.6 mph - N/A   Scattered Clouds
1:20 AM 35.6 °F - 35.6 °F 100% 30.27 in 2.5 mi Calm Calm - N/A   Scattered Clouds
1:30 AM 35.6 °F - 33.8 °F 93% 30.27 in 1.5 mi Calm Calm - N/A   Partly Cloudy
1:53 AM 35.1 °F - 34.0 °F 96% 30.27 in 0.8 mi Calm Calm - N/A   Mist
2:00 AM 35.6 °F - 33.8 °F 93% 30.27 in 1.0 mi Calm Calm - N/A   Clear
2:11 AM 33.8 °F - 32.0 °F 93% 30.27 in 0.8 mi Calm Calm - N/A   Mist
2:34 AM 33.8 °F - 32.0 °F 93% 30.28 in 1.2 mi Calm Calm - N/A   Partly Cloudy
2:42 AM 35.6 °F 32.8 °F 33.8 °F 93% 30.28 in 3.0 mi WNW 3.5 mph - N/A   Partly Cloudy
2:53 AM 35.1 °F - 34.0 °F 96% 30.28 in 9.0 mi Calm Calm - N/A   Clear
3:14 AM 33.8 °F - 33.8 °F 100% 30.28 in 1.5 mi Calm Calm - N/A   Clear
3:34 AM 33.8 °F 29.6 °F 30.2 °F 87% 30.28 in 0.8 mi WNW 4.6 mph - N/A   Clear
3:45 AM 33.8 °F 28.6 °F 32.0 °F 93% 30.28 in 2.0 mi NW 5.8 mph - N/A   Clear
4:00 AM 33.8 °F - 33.8 °F 100% 30.28 in 3.0 mi Calm Calm - N/A   Partly Cloudy
4:14 AM 33.8 °F - 32.0 °F 93% 30.28 in 2.5 mi Calm Calm - N/A   Mostly Cloudy
4:20 AM 33.8 °F - 30.2 °F 87% 30.28 in 0.8 mi Calm Calm - N/A   Mist
4:46 AM 32.0 °F - 30.2 °F 93% 30.28 in 0.2 mi Calm Calm - N/A Fog Fog
4:53 AM 32.0 °F - 30.0 °F 92% 30.29 in 0.2 mi Calm Calm - N/A Fog Fog
5:53 AM 30.9 °F - 30.0 °F 96% 30.29 in 0.5 mi Calm Calm - N/A Fog Light Freezing Fog
6:09 AM 32.0 °F - 30.2 °F 93% 30.29 in 0.2 mi Calm Calm - N/A Fog Fog
6:53 AM 32.0 °F - 30.0 °F 92% 30.30 in 0.5 mi Calm Calm - N/A Fog Fog
7:04 AM 32.0 °F - 30.2 °F 93% 30.29 in 0.2 mi Calm Calm - N/A Fog Fog
7:17 AM 30.2 °F - 28.4 °F 93% 30.30 in 0.8 mi Calm Calm - N/A   Overcast
7:26 AM 30.2 °F - 30.2 °F 100% 30.30 in 0.2 mi Calm Calm - N/A Fog Light Freezing Fog
7:42 AM 32.0 °F 28.7 °F 30.2 °F 93% 30.29 in 1.0 mi NNW 3.5 mph - N/A   Overcast
7:46 AM 32.0 °F 27.5 °F 30.2 °F 93% 30.29 in 4.0 mi NW 4.6 mph - N/A   Overcast
7:53 AM 32.0 °F - 30.9 °F 96% 30.30 in 7.0 mi Calm Calm - N/A   Mostly Cloudy
8:00 AM 32.0 °F - 30.2 °F 93% 30.29 in 5.0 mi Calm Calm - N/A   Mostly Cloudy
8:15 AM 32.0 °F - 30.2 °F 93% 30.30 in 5.0 mi Calm Calm - N/A   Partly Cloudy
8:53 AM 34.0 °F - 33.1 °F 96% 30.30 in 5.0 mi Calm Calm - N/A   Partly Cloudy
9:53 AM 39.0 °F 36.8 °F 37.0 °F 93% 30.30 in 10.0 mi West 3.5 mph - N/A   Clear
10:01 AM 37.4 °F 34.9 °F 37.4 °F 100% 30.29 in 2.5 mi SW 3.5 mph - N/A   Partly Cloudy
10:13 AM 39.2 °F - 37.4 °F 93% 30.29 in 9.0 mi Calm Calm - N/A   Scattered Clouds
10:37 AM 42.8 °F 38.0 °F 37.4 °F 81% 30.29 in 10.0 mi NNW 8.1 mph - N/A   Mostly Cloudy
10:53 AM 44.1 °F 40.8 °F 37.9 °F 79% 30.29 in 10.0 mi NNW 5.8 mph - N/A   Overcast
11:53 AM 44.1 °F 39.0 °F 37.0 °F 76% 30.28 in 10.0 mi North 9.2 mph - N/A   Overcast
12:53 PM 44.1 °F 40.1 °F 37.0 °F 76% 30.26 in 10.0 mi NE 6.9 mph - N/A   Overcast
1:19 PM 46.4 °F 41.5 °F 37.4 °F 71% 30.24 in 10.0 mi NE 10.4 mph - N/A   Scattered Clouds
1:53 PM 46.9 °F - 37.9 °F 71% 30.23 in 10.0 mi NNE 5.8 mph - N/A   Clear
2:53 PM 48.0 °F - 37.9 °F 68% 30.22 in 10.0 mi North 5.8 mph - N/A   Partly Cloudy
3:53 PM 46.0 °F 42.5 °F 37.9 °F 73% 30.20 in 10.0 mi NNE 6.9 mph - N/A   Clear
4:53 PM 43.0 °F 40.3 °F 37.0 °F 80% 30.18 in 10.0 mi North 4.6 mph - N/A   Clear
5:53 PM 39.9 °F - 36.0 °F 86% 30.17 in 10.0 mi Calm Calm - N/A   Clear
6:53 PM 39.9 °F 35.1 °F 36.0 °F 86% 30.15 in 10.0 mi NNW 6.9 mph - N/A   Clear
7:53 PM 41.0 °F 35.8 °F 35.1 °F 79% 30.14 in 10.0 mi NNW 8.1 mph - N/A   Clear
8:53 PM 41.0 °F - 35.1 °F 79% 30.13 in 10.0 mi North - - N/A   Clear
9:53 PM 41.0 °F 35.8 °F 34.0 °F 76% 30.12 in 10.0 mi NNW 8.1 mph - N/A   Clear
10:53 PM 41.0 °F 35.2 °F 33.1 °F 73% 30.11 in 10.0 mi NNW 9.2 mph - N/A   Clear
11:53 PM 41.0 °F 35.2 °F 32.0 °F 70% 30.11 in 10.0 mi NNW 9.2 mph - N/A   Clear